Tracking 19149 objects as of 20-Apr-2018
HD Live streaming from Space Station
objects crossing your sky now

PALAPA B4

Track PALAPA B4 now!
PALAPA B4 is classified as:


NORAD ID: 21964
Int'l Code: 1992-027A
Perigee: 35,857.0 km
Apogee: 35,911.6 km
Inclination: 10.2 °
Period: 1,440.7 minutes
Semi major axis: 42255 km
RCS: 12.5892 m2 (large)
Launch date: May 14, 1992
Source: Indonesia (INDO)
Launch site: AIR FORCE EASTERN TEST RANGE (AFETR)

Palapa B-4 was an Indonesian communications spacecraft launched by a Delta rocket.
aabbcc
Your satellite tracking list
Your tracking list is empty




NASA's NSSDC Master Catalog

Two Line Element Set (TLE):
1 21964U 92027A   18109.10254267 -.00000099  00000-0  00000+0 0  9996
2 21964  10.2354  37.8635 0006464 299.1515 264.7966  0.99949717 94719
Source of the keplerian elements: AFSPC